Location: Dallas
(32.7833°N, 96.8000°W)
Time: 14:11:25
(UTC-06:00)

Envisat - Pass Details

Date: 11 December 2021
Orbit: 764 x 766 km, 98.2° (Epoch: 28 January)

Event Time Altitude Azimuth Distance (km) Brightness Sun altitude
Rises 05:15:12 0° 14° (NNE) 3,235 6.3 -25.4°
Reaches altitude 10° 05:17:31 10° 15° (NNE) 2,305 5.5 -25.0°
Maximum altitude 05:22:36 78° 102° (ESE) 785 3.0 -23.9°
Drops below altitude 10° 05:27:39 10° 189° (S) 2,291 5.5 -22.9°
Sets 05:29:57 0° 190° (S) 3,213 6.3 -22.4°
